Location: London
(51.5074°N, 0.1278°W)
Time: 22:18:41
(UTC+01:00)

N. Korean satellite - Pass Details

Date: 03 October 2021
Orbit: 450 x 495 km, 97.3° (Epoch: 23 October)

Event Time Altitude Azimuth Distance (km) Brightness Sun altitude
Rises 05:27:05 0° 26° (NNE) 2,555 10.8 -15.9°
Reaches altitude 10° 05:29:37 10° 45° (NE) 1,677 10.2 -15.5°
Maximum altitude 05:32:15 19° 92° (E) 1,223 9.6 -15.1°
Drops below altitude 10° 05:34:53 10° 139° (SE) 1,682 9.7 -14.7°
Sets 05:37:25 0° 158° (SSE) 2,563 10.4 -14.3°
